This is the latest recevied weather packets stored in our database for station/object OK5TVR-14. If no packets are shown the sender has not sent any weather packets the latest 10 day(s).
| Time | Temp. | Humidity | Pressure | Rain* | Wind** | Luminosity | Snow |
|---|---|---|---|---|---|---|---|
| 1788156714 | 17.22° C | 75% | 1010.8 hPa | 0 mm | - | 0 W/m² | - |
| 1788155814 | 17.22° C | 75% | 1010.9 hPa | 0 mm | - | 0 W/m² | - |
| 1788154914 | 17.22° C | 75% | 1010.6 hPa | 0 mm | - | 0 W/m² | - |
| 1788154014 | 17.22° C | 75% | 1010.9 hPa | 0 mm | - | 0 W/m² | - |
| 1788153114 | 17.22° C | 77% | 1010.8 hPa | 0 mm | - | 0 W/m² | - |
| 1788152214 | 17.22° C | 75% | 1010.9 hPa | 0 mm | - | 0 W/m² | - |
| 1788151314 | 17.22° C | 74% | 1008.7 hPa | 0 mm | - | 0 W/m² | - |
| 1788150414 | 17.22° C | 76% | 1008.9 hPa | 0 mm | - | 0 W/m² | - |
| 1788149514 | 17.22° C | 76% | 1009 hPa | 0 mm | - | 1 W/m² | - |
| 1788148614 | 17.22° C | 71% | 1009.1 hPa | 0 mm | - | 0 W/m² | - |
| 1788147714 | 17.22° C | 71% | 1009.4 hPa | 0 mm | - | 0 W/m² | - |
| 1788146814 | 17.22° C | 71% | 1009.7 hPa | 0 mm | - | 0 W/m² | - |
| 1788145914 | 17.22° C | 71% | 1009.7 hPa | 0 mm | - | 0 W/m² | - |
| 1788145014 | 17.22° C | 71% | 1009.5 hPa | 0 mm | - | 0 W/m² | - |
| 1788144114 | 17.78° C | 71% | 1009.8 hPa | 0 mm | - | 0 W/m² | - |
| 1788143214 | 17.78° C | 70% | 1010 hPa | 0 mm | - | 0 W/m² | - |
| 1788142314 | 17.78° C | 70% | 1010.1 hPa | 0 mm | - | 0 W/m² | - |
| 1788141414 | 17.78° C | 70% | 1010.1 hPa | 0 mm | - | 0 W/m² | - |
| 1788123414 | 20.56° C | 63% | 1010.5 hPa | 0 mm | - | 0 W/m² | - |
| 1788122514 | 21.11° C | 63% | 1010.5 hPa | 0 mm | - | 0 W/m² | - |
| 1788121614 | 21.11° C | 62% | 1010.5 hPa | 0 mm | - | 0 W/m² | - |
| 1788120714 | 21.11° C | 61% | 1010.3 hPa | 0 mm | - | 0 W/m² | - |
| 1788119814 | 21.11° C | 61% | 1010.4 hPa | 0 mm | - | 0 W/m² | - |
| 1788118014 | 21.67° C | 60% | 1010.4 hPa | 0 mm | - | 0 W/m² | - |
| 1788117113 | 21.67° C | 60% | 1010.4 hPa | 0 mm | - | 0 W/m² | - |
* Rain latest hour (hover to see other rain measurements)
** Current wind speed in m/s (hover to see current wind gust speed)